Regional Weather Roundup
Issued by NWS

Home | Current Version | Previous Version | Graphics & Text | Print | Product List | Glossary On
Versions: 1 2 3 4 5 6 7 8 9 10 11 12 13 14 15 16 17 18 19 20 21 22 23 24 25 26 27 28 29 30 31 32 33 34 35 36 37 38 39 40 41 42 43 44 45 46 47 48 49 50
000
ASUS43 KBIS 061720
RWRND

NORTH DAKOTA REGIONAL WEATHER ROUNDUP
NATIONAL WEATHER SERVICE BISMARCK ND
1200 PM CDT WED MAY 06 2015

NOTE: "FAIR" INDICATES FEW OR NO CLOUDS BELOW 12,000 FEET WITH NO
SIGNIFICANT WEATHER AND/OR OBSTRUCTIONS TO VISIBILITY.


NDZ001>003-009>011-017-061800-
NORTHWEST NORTH DAKOTA

CITY           SKY/WX    TMP DP  RH WIND       PRES   REMARKS
WILLISTON      RAIN      59  56  89 S7        29.71S FOG
MINOT          LGT RAIN  61  57  87 SE7       29.74F FOG
MINOT AFB      LGT RAIN  63  63 100 SE14      29.74S
$$

NDZ018>021-031>035-040>046-061800-
SOUTHWEST NORTH DAKOTA

CITY           SKY/WX    TMP DP  RH WIND       PRES   REMARKS
BISMARCK       CLOUDY    60  59  96 SE15      29.73F FOG
DICKINSON      LGT RAIN  59  55  87 SE8       29.69F
GARRISON         N/A     60  32  34 SE9       29.73F
HETTINGER ARPT LGT RAIN  58  55  90 SE8       29.71F
$$

NDZ004>008-012>016-024-026-027-054-061800-
NORTHEAST NORTH DAKOTA

CITY           SKY/WX    TMP DP  RH WIND       PRES   REMARKS
GRAND FORKS    LGT RAIN  59  58  96 S13G20    29.88F FOG
GRND FRKS AFB  RAIN      59  57  94 S16       29.87F FOG
DEVILS LAKE    CLOUDY    57  54  88 SE13      29.82F
$$

NDZ022-023-025-028>030-036>039-047>053-061800-
SOUTHEAST NORTH DAKOTA

CITY           SKY/WX    TMP DP  RH WIND       PRES   REMARKS
FARGO          CLOUDY    63  58  83 SE21G28   29.87F
JAMESTOWN      CLOUDY    59  58  96 SE16      29.80F
$$




USA.gov is the U.S. government's official web portal to all federal, state and local government web resources and services.